When you browse on this site, cookies collect data to enhance your experience and personalize the content and advertising you see.
Visit our Privacy Policy to learn more. By continuing to use the site, you agree to this use of cookies and data.

Hourly Weather Kanggye

Today, 9 July, Thursday

Time Temperature Precipitation Wind Pressure Humidity
00:00 +16°C° 0 mm 1 mps 723 mmHg 74%
01:00 +15°C° 0 mm 1 mps 723 mmHg 76%
02:00 +15°C° 0 mm 1 mps 723 mmHg 77%
03:00 +15°C° 0 mm 1 mps 723 mmHg 78%
04:00 +15°C° 0 mm 1 mps 723 mmHg 78%
05:00 +15°C° 0 mm 1 mps 723 mmHg 78%
06:00 +20°C° 0 mm 1 mps 723 mmHg 69%
07:00 +21°C° 0 mm 0 mps 723 mmHg 60%
08:00 +24°C° 0 mm 0 mps 724 mmHg 50%
09:00 +26°C° 0 mm 0 mps 724 mmHg 45%
10:00 +30°C° 0 mm 1 mps 723 mmHg 40%
11:00 +32°C° 0 mm 1 mps 723 mmHg 35%
12:00 +32°C° 0 mm 1 mps 723 mmHg 34%
13:00 +33°C° 0 mm 1 mps 723 mmHg 33%
14:00 +33°C° 0 mm 1 mps 722 mmHg 33%
15:00 +32°C° 0 mm 1 mps 722 mmHg 38%
16:00 +31°C° 0 mm 1 mps 722 mmHg 44%
17:00 +30°C° 0 mm 1 mps 723 mmHg 49%
18:00 +27°C° 0 mm 1 mps 723 mmHg 57%
19:00 +25°C° 0 mm 1 mps 723 mmHg 64%
20:00 +22°C° 0 mm 1 mps 723 mmHg 71%
21:00 +21°C° 0 mm 1 mps 724 mmHg 74%
22:00 +21°C° 0 mm 1 mps 724 mmHg 77%
23:00 +20°C° 0 mm 1 mps 724 mmHg 80%

Tomorrow, 10 July, Friday

Time Temperature Precipitation Wind Pressure Humidity
00:00 +20°C° 0 mm 1 mps 724 mmHg 81%
01:00 +20°C° 0 mm 1 mps 724 mmHg 82%
02:00 +20°C° 0 mm 1 mps 724 mmHg 84%
03:00 +20°C° 0 mm 1 mps 724 mmHg 83%
04:00 +20°C° 0 mm 1 mps 724 mmHg 83%
05:00 +20°C° 0 mm 1 mps 724 mmHg 83%
06:00 +23°C° 0 mm 1 mps 724 mmHg 75%
07:00 +23°C° 0 mm 0 mps 724 mmHg 67%
08:00 +26°C° 0 mm 0 mps 724 mmHg 59%
09:00 +27°C° 0 mm 0 mps 724 mmHg 53%
10:00 +31°C° 0 mm 1 mps 724 mmHg 47%
11:00 +33°C° 0 mm 1 mps 724 mmHg 41%
12:00 +33°C° 0 mm 1 mps 723 mmHg 42%
13:00 +32°C° 0 mm 1 mps 723 mmHg 44%
14:00 +32°C° 0 mm 1 mps 723 mmHg 46%
15:00 +30°C° 0.3 mm 1 mps 723 mmHg 58%
16:00 +28°C° 0.3 mm 1 mps 722 mmHg 69%
17:00 +26°C° 0.3 mm 1 mps 722 mmHg 80%
18:00 +23°C° 0.8 mm 0 mps 722 mmHg 85%
19:00 +21°C° 0.8 mm 0 mps 722 mmHg 89%
20:00 +19°C° 0.8 mm 0 mps 722 mmHg 93%
21:00 +19°C° 0.1 mm 0 mps 722 mmHg 93%
22:00 +21°C° 0.1 mm 1 mps 723 mmHg 93%
23:00 +20°C° 0.1 mm 1 mps 723 mmHg 93%

Day after tomorrow, 11 July, Saturday

Time Temperature Precipitation Wind Pressure Humidity
00:00 +20°C° 0.1 mm 1 mps 723 mmHg 93%
01:00 +20°C° 0.1 mm 1 mps 723 mmHg 93%
02:00 +20°C° 0.1 mm 1 mps 723 mmHg 93%
03:00 +20°C° 0 mm 1 mps 723 mmHg 93%
04:00 +18°C° 0 mm 0 mps 723 mmHg 93%
05:00 +18°C° 0 mm 0 mps 723 mmHg 93%
06:00 +20°C° 0.1 mm 0 mps 724 mmHg 87%
07:00 +22°C° 0.1 mm 0 mps 724 mmHg 82%
08:00 +24°C° 0.1 mm 0 mps 724 mmHg 76%
09:00 +27°C° 1 mm 1 mps 724 mmHg 75%
10:00 +27°C° 1 mm 1 mps 724 mmHg 75%
11:00 +28°C° 1 mm 1 mps 724 mmHg 74%
12:00 +28°C° 1 mm 1 mps 724 mmHg 74%
13:00 +28°C° 1 mm 1 mps 724 mmHg 75%
14:00 +28°C° 1 mm 1 mps 723 mmHg 75%
15:00 +27°C° 1.2 mm 1 mps 724 mmHg 80%
16:00 +27°C° 1.2 mm 1 mps 724 mmHg 85%
17:00 +26°C° 1.2 mm 1 mps 724 mmHg 90%
18:00 +24°C° 1.5 mm 1 mps 724 mmHg 92%
19:00 +23°C° 1.5 mm 1 mps 725 mmHg 93%
20:00 +21°C° 1.5 mm 1 mps 725 mmHg 95%
21:00 +21°C° 0.7 mm 1 mps 725 mmHg 95%
22:00 +20°C° 0.7 mm 1 mps 726 mmHg 96%
23:00 +19°C° 0.7 mm 1 mps 726 mmHg 96%

12 July, Sunday

Time Temperature Precipitation Wind Pressure Humidity
00:00 +19°C° 0 mm 1 mps 726 mmHg 96%
01:00 +19°C° 0 mm 1 mps 725 mmHg 95%
02:00 +19°C° 0 mm 1 mps 725 mmHg 95%
03:00 +19°C° 0 mm 1 mps 725 mmHg 95%
04:00 +17°C° 0 mm 0 mps 725 mmHg 95%
05:00 +17°C° 0 mm 0 mps 726 mmHg 95%
06:00 +19°C° 0 mm 0 mps 726 mmHg 88%
07:00 +22°C° 0 mm 0 mps 726 mmHg 81%
08:00 +24°C° 0 mm 0 mps 726 mmHg 74%
09:00 +28°C° 0 mm 1 mps 725 mmHg 65%
10:00 +30°C° 0 mm 1 mps 725 mmHg 56%
11:00 +32°C° 0 mm 1 mps 725 mmHg 48%
12:00 +32°C° 0 mm 1 mps 725 mmHg 46%
13:00 +32°C° 0 mm 1 mps 725 mmHg 44%
14:00 +33°C° 0 mm 1 mps 724 mmHg 42%
15:00 +32°C° 0.1 mm 1 mps 724 mmHg 48%
16:00 +31°C° 0.1 mm 1 mps 724 mmHg 54%
17:00 +30°C° 0.1 mm 1 mps 724 mmHg 60%
18:00 +28°C° 0 mm 1 mps 724 mmHg 68%
19:00 +25°C° 0 mm 1 mps 725 mmHg 76%
20:00 +23°C° 0 mm 1 mps 725 mmHg 84%
21:00 +22°C° 0 mm 1 mps 725 mmHg 85%
22:00 +22°C° 0 mm 1 mps 725 mmHg 87%
23:00 +21°C° 0 mm 1 mps 725 mmHg 89%

13 July, Monday

Time Temperature Precipitation Wind Pressure Humidity
00:00 +21°C° 0 mm 1 mps 724 mmHg 90%
01:00 +20°C° 0 mm 1 mps 724 mmHg 91%
02:00 +19°C° 0 mm 1 mps 724 mmHg 92%
03:00 +19°C° 0 mm 1 mps 724 mmHg 91%
04:00 +19°C° 0 mm 1 mps 724 mmHg 90%
05:00 +19°C° 0 mm 1 mps 724 mmHg 90%
06:00 +21°C° 0 mm 1 mps 724 mmHg 81%
07:00 +24°C° 0 mm 1 mps 724 mmHg 73%
08:00 +24°C° 0 mm 0 mps 724 mmHg 65%
09:00 +28°C° 0 mm 1 mps 724 mmHg 58%
10:00 +30°C° 0 mm 1 mps 724 mmHg 51%
11:00 +32°C° 0 mm 1 mps 723 mmHg 44%
12:00 +32°C° 0 mm 1 mps 723 mmHg 43%
13:00 +32°C° 0 mm 1 mps 723 mmHg 42%
14:00 +32°C° 0 mm 1 mps 722 mmHg 41%
15:00 +31°C° 0 mm 1 mps 722 mmHg 51%
16:00 +29°C° 0 mm 1 mps 722 mmHg 60%
17:00 +28°C° 0 mm 1 mps 722 mmHg 70%
18:00 +26°C° 0 mm 1 mps 722 mmHg 74%
19:00 +24°C° 0 mm 1 mps 722 mmHg 79%
20:00 +22°C° 0 mm 1 mps 722 mmHg 84%
21:00 +21°C° 0 mm 1 mps 722 mmHg 86%
22:00 +21°C° 0 mm 1 mps 722 mmHg 87%
23:00 +20°C° 0 mm 1 mps 722 mmHg 89%

14 July, Tuesday

Time Temperature Precipitation Wind Pressure Humidity
00:00 +19°C° 0 mm 1 mps 722 mmHg 90%
01:00 +19°C° 0 mm 1 mps 722 mmHg 91%
02:00 +18°C° 0 mm 1 mps 721 mmHg 92%
03:00 +18°C° 0 mm 1 mps 721 mmHg 91%
04:00 +18°C° 0 mm 1 mps 721 mmHg 90%
05:00 +18°C° 0 mm 1 mps 721 mmHg 89%
06:00 +20°C° 0 mm 1 mps 722 mmHg 79%
07:00 +21°C° 0 mm 0 mps 722 mmHg 69%
08:00 +24°C° 0 mm 0 mps 722 mmHg 59%
09:00 +25°C° 0 mm 0 mps 722 mmHg 53%
10:00 +29°C° 0 mm 1 mps 722 mmHg 48%
11:00 +30°C° 0 mm 1 mps 722 mmHg 42%
12:00 +30°C° 0 mm 1 mps 721 mmHg 40%
13:00 +31°C° 0 mm 1 mps 721 mmHg 39%
14:00 +32°C° 0 mm 1 mps 721 mmHg 37%
15:00 +31°C° 0 mm 1 mps 721 mmHg 43%
16:00 +30°C° 0 mm 1 mps 720 mmHg 49%
17:00 +29°C° 0 mm 1 mps 720 mmHg 55%
18:00 +26°C° 0 mm 1 mps 721 mmHg 63%
19:00 +24°C° 0 mm 1 mps 721 mmHg 72%
20:00 +22°C° 0 mm 1 mps 721 mmHg 81%
21:00 +21°C° 0 mm 1 mps 721 mmHg 84%
22:00 +20°C° 0 mm 1 mps 721 mmHg 87%
23:00 +20°C° 0 mm 1 mps 721 mmHg 89%
Show more